Regional Weather Roundup
Issued by NWS

Home | Current Version | Previous Version | Text Only | Print | Product List | Glossary On
Versions: 1 2 3 4 5 6 7 8 9 10 11 12 13 14 15 16 17 18 19 20 21 22 23 24 25 26 27 28 29 30 31 32 33 34 35 36 37 38 39 40 41 42 43 44 45 46 47 48 49 50
000
ASUS43 KMKX 182120
RWRWI

WISCONSIN REGIONAL WEATHER ROUNDUP
NATIONAL WEATHER SERVICE MILWAUKEE/SULLIVAN WI
300 PM CST THU JAN 18 2018

NOTE: "FAIR" INDICATES FEW OR NO CLOUDS BELOW 12,000 FEET WITH NO
SIGNIFICANT WEATHER AND/OR OBSTRUCTIONS TO VISIBILITY.

WIZ001-002-006>008-014>016-023>028-182200-
NORTHWEST WISCONSIN

CITY           SKY/WX    TMP DP  RH WIND       PRES   REMARKS
SUPERIOR ARPT  FAIR      37  27  66 W8        29.74R WCI  31
ASHLAND        NOT AVBL
HAYWARD        FAIR      38  24  57 SW8       29.73S WCI  32
SIREN          FAIR      38  24  59 W10       29.76S WCI  30
CUMBERLAND     FAIR      34  21  60 SW6       29.75F WCI  29
RICE LAKE      FAIR      36  22  58 SW5       29.77F WCI  32
CHETEK         FAIR      36  21  55 W6        29.77S WCI  31
LADYSMITH      FAIR      37  24  58 SW9       29.76S WCI  31
EAU CLAIRE     FAIR      36  22  56 SW13      29.78F WCI  27
MENOMONIE      FAIR      40  23  51 SW12      29.79F WCI  32
NEW RICHMOND   FAIR      38  22  52 SW7       29.78S WCI  33
OSCEOLA        FAIR      40  25  55 W8        29.80F WCI  34
$$

WIZ003>005-009-010-017-018-182200-
NORTH CENTRAL WISCONSIN

CITY           SKY/WX    TMP DP  RH WIND       PRES   REMARKS
MANITOWISH WTR CLOUDY    32  23  70 W5        29.70S WCI  27
ARBOR VITAE    CLOUDY    37  27  69 W5        29.70R WCI  33
WOODRUFF       CLOUDY    37  27  69 W5        29.70R WCI  33
RHINELANDER    FAIR      35  25  66 W10       29.71R WCI  27
EAGLE RIVER    CLOUDY    32  23  69 W9        29.70R WCI  24
LAND O LAKES   CLOUDY    31  24  73 W3        29.71R
PHILLIPS       FAIR      35  23  62 SW8       29.71S WCI  28
TOMAHAWK       FAIR      36  23  60 W8        29.72S WCI  29
MEDFORD        FAIR      33  20  61 SW8       29.74F WCI  25
MERRILL        FAIR      36  22  56 SW8       29.74S WCI  29
$$

WIZ029-030-035-036-043>047-182200-
CENTRAL WISCONSIN

CITY           SKY/WX    TMP DP  RH WIND       PRES   REMARKS
WAUSAU         FAIR      34  20  56 W10       29.74S WCI  26
MOSINEE        MOSUNNY   34  21  60 SW15      29.77S WCI  24
MARSHFIELD     FAIR      35  21  56 W12       29.76S WCI  27
STEVENS POINT  FAIR      36  20  52 SW10      29.79R WCI  28
WAUPACA        FAIR      38  21  48 SW12      29.79F WCI  31
WAUTOMA        FAIR      37  21  52 W14G22    29.81F WCI  28
WISC RAPIDS    FAIR      37  19  48 W12G18    29.81S WCI  29
CAMP DOUGLAS   MOSUNNY   36  21  55 SW14      29.83S WCI  27
$$

WIZ011>013-019>022-031-037>040-048>050-182200-
NORTHEAST WISCONSIN

CITY           SKY/WX    TMP DP  RH WIND       PRES   REMARKS
ANTIGO         FAIR      32  20  62 SW12      29.72R WCI  23
SHAWANO        FAIR      38  21  49 SW10G17   29.75S WCI  31
OCONTO         FAIR      33  20  59 SW10G17   29.75F WCI  25
STURGEON BAY   CLOUDY    33  20  58 SW10      29.76S WCI  25
GREEN BAY      FAIR      32  20  61 SW15G25   29.77F WCI  22
MANITOWOC      FAIR      34  21  59 SW14      29.81S WCI  25
APPLETON       MOSUNNY   32  19  59 SW13      29.78F WCI  22
CLINTONVILLE   FAIR      36  19  51 W9        29.77F WCI  29
OSHKOSH        FAIR      32  21  64 SW14      29.82F WCI  22
$$

WIZ032>034-041-042-053>061-182200-
SOUTHWEST WISCONSIN

CITY           SKY/WX    TMP DP  RH WIND       PRES   REMARKS
LA CROSSE      FAIR      35  24  64 S8        29.85F WCI  29
SPARTA         FAIR      37  23  56 SW8       29.85S WCI  31
VIROQUA        FAIR      33  24  69 SW12      29.85S WCI  24
BOSCOBEL       FAIR      36  20  52 SW9       29.91F WCI  29
PRAIRIE DU CHI FAIR      35  19  53 SW10      29.92R WCI  27
PLATTEVILLE    FAIR      34  23  63 SW13      29.91F WCI  25
$$

WIZ056-057-062-063-064-067-068-182200-
SOUTH CENTRAL WISCONSIN

CITY           SKY/WX    TMP DP  RH WIND       PRES   REMARKS
REEDSBURG      FAIR      33  20  60 SW12      29.86S WCI  24
BARABOO/DELLS  FAIR      33  20  58 SW14G21   29.85S WCI  23
LONE ROCK      FAIR      33  21  61 SW8       29.90F WCI  26
MINERAL POINT  FAIR      34  23  64 SW13      29.89F WCI  25
MADISON        FAIR      32  19  58 SW7       29.89F WCI  26
MIDDLETON      FAIR      33  20  58 SW12      29.88F WCI  24
WATERTOWN      FAIR      29  20  68 SW14      29.89F WCI  18
MONROE         FAIR      32  19  59 SW20      29.91F WCI  20
JANESVILLE     SUNNY     32  19  59 SW18G25   29.92F WCI  20
$$

WIZ051-052-058>065-066-070>072-182200-
SOUTHEAST WISCONSIN

CITY           SKY/WX    TMP DP  RH WIND       PRES   REMARKS
MILWAUKEE      FAIR      33  19  56 SW16G31   29.90F WCI  23
WAUKESHA       SUNNY     28  18  64 SW10      29.90F WCI  19
MILWAUKEE/TIMM SUNNY     32  16  51 SW14G22   29.89F WCI  22
RACINE         FAIR      30  18  60 SW17G28   29.92F WCI  18
BURLINGTON     FAIR      30  18  59 SW15      29.92F WCI  19
KENOSHA        FAIR      31  18  58 W21G30    29.92F WCI  18
FOND DU LAC    FAIR      31  18  58 SW13      29.83F WCI  21
SHEBOYGAN      FAIR      32  22  66 SW13      29.83F WCI  22
WEST BEND      FAIR      32  19  59 SW14      29.85F WCI  22
JUNEAU         FAIR      28  19  68 S16       29.87F WCI  17
$$

LSZ147-162-182200-
LAKE SUPERIOR

STATION/POSITION TIME  TEMP    WIND        PRES    WAVE
                       AIR SEA DIR/SP/G            HT/PER
                 (UTC) (F)     (DEG/KT/KT) (MB)    (FT/S)
DEVILS ISLAND    2100   34     260/ 11/ 14 1006.6R
SAXON HARBOR     2040   36     250/  3/  7 1006.4S
$$

LMZ867-665-643>646-182200-
LAKE MICHIGAN

STATION/POSITION TIME  TEMP    WIND        PRES    WAVE
                       AIR SEA DIR/SP/G            HT/PER
                 (UTC) (F)     (DEG/KT/KT) (MB)    (FT/S)
NORTHPORT PIER   2052   30     220/  7     1007.5S
KEWAUNEE LAKESHO 2054   33     210/ 10/ 15 1007.7F
SHEBOYGAN LAKESH 2100   33     240/ 12/ 15 1011.1F
PORT WASHINGTON  2030   35     250/ 11/ 21 1012.2F
MILWAUKEE LAKESH 2100   32     250/ 17/ 19   N/A
KENOSHA   LAKESH 2100   33     240/ 14/ 23 1013.5
$$

TC  - TEMPERATURE IN CELSIUS
VSB - VISIBILITY IN STATUTE MILES
WCI - WIND CHILL INDEX
HX  - HEAT INDEX





USA.gov is the U.S. government's official web portal to all federal, state and local government web resources and services.